Location: *
(43.0285°S, 179.8304°W)
Time: 05:21:15
(UTC+00:00)

Daily predictions for brighter satellites

Satellite Brightness Start Highest point End
(mag) Time Altitude Azimuth Time Altitude Azimuth Time Altitude Azimuth
COSMO-SKYMED 1 2.6 05:00:39 10° NNE 05:05:01 70° ESE 05:09:25 10° S
Cosmos 1821 Rocket 4.2 04:58:56 10° N 05:05:04 81° W 05:11:20 10° S
Cosmos 2237 Rocket 3.6 05:02:14 10° NE 05:06:08 19° E 05:10:01 10° SE
STARLINK-61 3.8 05:02:17 10° NW 05:06:11 58° NE 05:10:06 10° ESE
STARLINK-1316 4.4 05:05:02 10° W 05:07:50 27° SSW 05:10:39 10° SE
CZ-4B R/B 4.2 05:03:33 10° SE 05:08:05 26° E 05:12:37 10° NNE
SL-16 R/B 4.1 05:03:56 10° WNW 05:08:38 26° SW 05:13:24 10° S
STARLINK-1257 4.5 05:05:59 10° W 05:08:46 27° SSW 05:11:35 10° SE
STARLINK-1304 3.7 05:05:10 10° NW 05:09:23 87° NE 05:13:36 10° SE
Cosmos 1633 2.6 05:05:46 10° N 05:09:25 88° E 05:13:06 10° S
STARLINK-1256 4.5 05:06:53 10° W 05:09:40 27° SSW 05:12:28 10° SE
Iridium 96 3.8 05:08:19 10° SSE 05:09:51 24° E 05:11:22 10° NE
STARLINK-1213 4.5 05:07:48 10° W 05:10:35 26° SSW 05:13:22 10° SE
STARLINK-1286 3.7 05:07:26 10° NW 05:11:40 87° SW 05:15:56 10° SE
Cosmos 2228 Rocket 3.1 05:10:00 10° S 05:14:37 80° E 05:19:07 10° N
STARLINK-45 4.5 05:15:54 10° NNW 05:19:22 32° NE 05:22:35 12° ESE
Cosmos 1934 Rocket 4.1 05:13:19 10° N 05:19:39 81° E 05:26:08 10° S
STARLINK-62 4.4 05:18:04 10° W 05:20:59 29° SSW 05:23:53 10° SE
STARLINK-1029 4.1 05:19:22 10° W 05:22:19 34° SSW 05:25:14 10° SE
STARLINK-71 4.5 05:18:57 10° NNW 05:22:39 34° NE 05:25:57 12° ESE
STARLINK-34 4.5 05:20:02 10° W 05:22:56 28° SSW 05:25:50 10° SE
Cosmos 158 Rocket 4.4 05:18:49 10° N 05:23:42 45° ENE 05:28:46 10° SSE
STARLINK-23 4.5 05:20:39 10° NNW 05:24:07 32° NE 05:27:06 13° ESE
STARLINK-1299 4.0 05:21:20 10° WNW 05:25:37 63° SSW 05:29:38 12° SE
STARLINK-32 4.4 05:22:14 10° NNW 05:25:43 33° NE 05:28:40 13° ESE
Cosmos 1743 Rocket 4.3 05:21:24 10° NNW 05:25:44 57° W 05:30:11 10° S
Cosmos 2333 Rocket 2.3 05:20:12 10° NNW 05:25:59 85° ENE 05:31:50 10° SSE
STARLINK-1306 3.9 05:21:51 10° WNW 05:26:05 68° SSW 05:30:00 12° SE
Cosmos 2112 Rocket 4.3 05:22:05 10° N 05:27:11 49° ENE 05:32:18 10° SSE
STARLINK-40 4.4 05:23:53 10° NNW 05:27:24 34° NE 05:30:18 14° ESE
Cosmos 405 3.2 05:24:19 10° S 05:27:48 46° ESE 05:31:13 10° NNE
STARLINK-44 4.3 05:25:26 10° NNW 05:28:59 35° NE 05:31:48 15° ESE
STARLINK-1281 3.8 05:25:07 10° WNW 05:29:18 69° SSW 05:33:01 13° SE
Okean O Rocket 2.3 05:25:35 10° SSE 05:29:40 34° E 05:33:44 10° NNE
H-2A R/B 3.5 05:26:33 10° SSE 05:30:06 32° E 05:33:38 10° NNE
Cosmos 1605 Rocket 4.0 05:24:22 10° N 05:30:31 64° E 05:36:39 10° SSE
Meteor 1-10 Rocket 4.2 05:25:03 10° S 05:30:42 65° ESE 05:36:23 10° NNE
STARLINK-37 4.2 05:27:10 10° NNW 05:30:48 39° NE 05:33:38 15° ESE
Cosmos 2278 Rocket 2.7 05:25:46 10° S 05:31:05 38° ESE 05:36:22 10° NE
FENGYUN 3A 4.3 05:25:42 10° S 05:31:06 60° WSW 05:36:26 10° NNW
STARLINK-29 3.5 05:28:07 10° SW 05:31:18 42° SSE 05:34:00 13° E
STARLINK-36 4.2 05:28:38 10° NNW 05:32:14 37° NE 05:34:57 16° ESE
Cosmos 1844 Rocket 3.9 05:27:16 10° SW 05:32:44 48° WNW 05:38:09 10° N
Sich 1 3.2 05:28:34 10° N 05:32:51 54° E 05:37:14 10° SSE
STARLINK-68 4.0 05:30:24 10° NNW 05:34:04 42° NE 05:36:47 17° ESE
STARLINK-1310 3.9 05:30:08 10° WNW 05:34:18 64° SSW 05:37:49 14° SE
STARLINK-63 4.1 05:31:59 10° NNW 05:35:40 42° NE 05:38:18 17° ESE
STARLINK-35 4.1 05:33:30 10° NNW 05:37:10 41° NE 05:39:42 18° ESE
SMAP 4.0 05:33:17 10° SE 05:37:20 28° E 05:41:20 10° NNE
STARLINK-51 4.0 05:35:11 10° NNW 05:38:52 43° NE 05:41:22 18° ESE
STARLINK-1319 4.0 05:35:08 10° WNW 05:39:17 59° SSW 05:42:36 16° SE
Cosmos 2322 4.4 05:34:25 10° NW 05:39:59 54° WSW 05:45:36 10° SSE
Cosmos 1346 Rocket 3.2 05:36:19 10° NNW 05:40:15 65° W 05:44:16 10° S
STARLINK-30 4.0 05:36:47 10° NNW 05:40:29 44° NE 05:42:56 19° ESE
STARLINK-1028 4.4 05:37:48 10° NNW 05:41:41 37° NE 05:44:12 19° ESE
PSLV R/B 4.2 05:37:56 10° S 05:42:07 70° WSW 05:46:12 10° NNW
STARLINK-72 3.9 05:38:28 10° NNW 05:42:11 46° NE 05:44:35 20° ESE
Cosmos 2360 Rocket 3.9 05:38:15 10° WNW 05:43:13 30° SW 05:48:13 10° S
STARLINK-1277 4.1 05:40:08 10° WNW 05:44:16 55° SSW 05:47:22 17° SE
STARLINK-59 3.8 05:41:44 10° NW 05:45:31 52° NE 05:47:48 22° ESE
STARLINK-1021 4.3 05:42:41 10° NNW 05:46:38 41° NE 05:48:58 21° ESE
STARLINK-56 3.8 05:43:18 10° NW 05:47:04 51° NE 05:49:17 22° ESE
Cosmos 2056 Rocket 3.8 05:42:10 10° S 05:47:21 45° ESE 05:52:23 10° NE
ATLAS 2AS CENTAUR R/B 3.9 05:43:53 10° SSW 05:48:37 20° SSE 05:51:07 17° ESE
STARLINK-73 3.7 05:44:56 10° NW 05:48:43 53° NE 05:50:52 23° ESE
STARLINK-1276 4.2 05:45:10 10° WNW 05:49:16 51° SSW 05:52:09 18° SE
STARLINK-38 3.7 05:46:34 10° NW 05:50:21 55° NE 05:52:27 24° ESE
SL-24 R/B 4.3 05:46:04 10° N 05:51:08 79° E 05:56:02 10° S
STARLINK-1019 4.1 05:47:35 10° NNW 05:51:35 45° NE 05:53:46 24° ESE
STARLINK-24 3.7 05:47:54 10° NW 05:51:54 61° NE 05:54:10 24° ESE
STARLINK-65 3.6 05:48:12 10° NW 05:52:01 56° NE 05:54:03 25° ESE
NOAA 6 4.0 05:47:47 10° SSE 05:53:01 80° ENE 05:58:10 10° N
CZ-2C R/B 4.0 05:53:39 19° SE 05:53:39 19° SE 05:56:59 10° SSE
STARLINK-53 3.6 05:50:04 10° NW 05:53:55 62° NE 05:55:57 26° ESE
STARLINK-1305 4.3 05:50:12 10° WNW 05:54:16 48° SSW 05:56:57 20° SE
MOS 1-B 4.5 05:49:00 10° SSE 05:54:54 82° WSW 06:00:44 10° NNW
SJ-7 4.3 05:51:15 10° SSE 05:55:20 86° E 05:59:22 10° NNW
STARLINK-25 3.5 05:51:41 10° NW 05:55:22 57° NE 05:57:08 28° ESE
STARLINK-1012 4.0 05:52:29 10° NNW 05:56:32 50° NE 05:58:33 27° ESE
Cosmos 1818 3.6 05:51:38 10° NNW 05:56:56 58° ENE 06:00:42 19° SE
STARLINK-1262 4.4 05:55:14 10° WNW 05:59:17 45° SSW 06:01:44 21° SE
Cosmos 1666 Rocket 3.5 05:54:58 10° N 05:59:20 71° E 06:03:44 10° SSE
Shenzhou-11 Module 1.5 05:58:10 10° WNW 06:00:45 75° N 06:01:12 54° ENE
Cosmos 1633 Rocket 3.1 05:57:05 10° N 06:01:27 61° E 06:05:55 10° SSE
H-2A R/B 4.4 05:58:57 10° S 06:02:36 29° WSW 06:06:06 10° NW
BREEZE-M DEB (TANK) 3.7 05:59:33 10° WSW 06:03:32 87° SSE 06:19:17 10° ENE
YAOGAN 6 3.3 06:03:03 31° ESE 06:03:47 35° E 06:07:11 10° NNE
ALOS 4.4 06:00:10 10° S 06:04:04 26° WSW 06:07:57 10° WNW
STARLINK-1300 4.5 06:00:14 10° W 06:04:15 42° SSW 06:06:29 23° SSE
Centaur D AC-29 3.8 05:56:36 10° WNW 06:05:17 20° NNW 06:09:04 10° NNE
STARLINK-1026 3.8 06:02:21 10° NW 06:06:28 60° NE 06:08:07 33° ESE
Cosmos 2219 Rocket 3.0 06:00:59 10° NW 06:06:32 51° WSW 06:12:08 10° SSE
Cosmos 2100 Rocket 4.1 06:01:21 10° NNE 06:07:18 49° E 06:13:16 10° SSE
STARLINK-52 2.9 06:04:14 10° SW 06:07:32 73° SSE 06:08:30 42° ENE
Cosmos 1680 Rocket 3.9 06:02:42 10° NNW 06:07:58 64° WSW 06:13:15 10° SSE
STARLINK-50 3.5 06:03:59 10° NW 06:08:02 77° NE 06:09:41 35° ESE
STARLINK-1338 4.2 06:06:36 10° SW 06:09:54 31° SSE 06:10:05 30° SSE
STARLINK-1013 3.7 06:07:15 10° NW 06:11:24 65° NE 06:12:52 38° ESE
FALCON 9 DEB 3.3 06:08:52 10° SW 06:12:22 56° SSE 06:12:55 48° ESE
STARLINK-1371 4.2 06:12:02 10° SW 06:15:21 33° SSE 06:15:21 33° SSE
STARLINK-1009 3.6 06:12:12 10° NW 06:16:22 72° NE 06:17:39 43° ESE
Cosmos 1153 Rocket 4.5 06:11:30 10° N 06:17:39 87° W 06:23:55 10° S
Cosmos 1452 Rocket 4.3 06:12:59 10° S 06:17:29 31° SE 06:17:29 31° SE
STARLINK-1341 4.1 06:14:46 10° SW 06:18:02 34° SSE 06:18:02 34° SSE
SL-4 R/B 3.4 06:16:27 10° WSW 06:19:55 35° NW 06:23:37 10° NNE
STARLINK-1374 4.1 06:17:20 10° SW 06:20:30 34° SSE 06:20:30 34° SSE
Cosmos 1420 Rocket 4.2 06:16:01 10° S 06:21:12 46° ESE 06:24:07 24° NE
STARLINK-1015 3.6 06:17:10 10° NW 06:21:21 78° NE 06:22:27 48° ESE
Cosmos 1980 3.6 06:15:47 10° NNW 06:21:28 85° ENE 06:25:38 20° SSE
STARLINK-1339 4.1 06:20:04 10° SW 06:23:10 35° S 06:23:10 35° S
Cosmos 2061 Rocket 4.3 06:18:16 10° NNE 06:24:08 42° E 06:28:12 19° SSE
Cosmos 1238 Rocket 2.9 06:19:51 10° N 06:24:29 82° W 06:27:18 18° S
STARLINK-1377 4.2 06:22:15 10° SW 06:25:11 35° S 06:25:11 35° S
STARLINK-1016 3.5 06:22:08 10° NW 06:26:19 85° NNE 06:27:13 55° ESE
Envisat 2.9 06:21:24 10° SSE 06:26:36 78° ENE 06:31:42 10° N
STARLINK-1320 4.3 06:25:10 10° SW 06:27:09 29° SSW 06:27:09 29° SSW
STARLINK-1353 4.2 06:24:55 10° SW 06:27:46 35° S 06:27:46 35° S
STARLINK-1322 4.3 06:25:29 10° SW 06:27:28 29° SSW 06:27:28 29° SSW
STARLINK-1324 4.3 06:25:50 10° SW 06:27:48 29° SSW 06:27:48 29° SSW
Meteor 1-20 Rocket 4.4 06:23:26 10° N 06:28:59 53° E 06:32:30 23° SSE
STARLINK-1294 4.4 06:26:12 10° SW 06:28:05 28° SSW 06:28:05 28° SSW
STARLINK-1261 4.4 06:26:30 10° SW 06:28:27 28° SSW 06:28:27 28° SSW
STARLINK-1325 4.4 06:26:49 10° SW 06:28:45 28° SSW 06:28:45 28° SSW
Cosmos 1812 4.3 06:26:24 10° SSW 06:30:03 38° W 06:33:39 10° NNW
NOSS 0 Rocket 4.1 06:23:59 10° NNW 06:30:14 73° WSW 06:35:22 16° SSE
STARLINK-1333 4.4 06:27:12 10° SW 06:29:08 28° SSW 06:29:08 28° SSW
Feng Yun 1-1 Rocket 4.3 06:27:58 29° SE 06:30:34 53° E 06:35:55 10° N
STARLINK-1334 4.4 06:27:32 10° SW 06:29:26 28° SSW 06:29:26 28° SSW
STARLINK-1326 4.4 06:27:51 10° SW 06:29:45 28° SSW 06:29:45 28° SSW
Cosmos 2297 4.4 06:25:58 10° S 06:30:32 33° SE 06:30:32 33° SE
STARLINK-1323 4.4 06:28:10 10° SW 06:30:04 28° SSW 06:30:04 28° SSW
STARLINK-1008 3.5 06:27:06 10° NW 06:31:18 89° SW 06:32:01 61° SE
STARLINK-1375 4.2 06:28:03 10° SW 06:30:53 36° S 06:30:53 36° S
STARLINK-1349 4.4 06:28:33 10° SW 06:30:25 28° SSW 06:30:25 28° SSW
STARLINK-1336 4.4 06:28:52 10° SW 06:30:43 28° SSW 06:30:43 28° SSW
STARLINK-1331 4.5 06:29:14 10° SW 06:31:05 28° SSW 06:31:05 28° SSW
STARLINK-1344 4.5 06:29:36 10° SW 06:31:25 27° SSW 06:31:25 27° SSW
STARLINK-1343 4.5 06:29:52 10° SW 06:31:42 27° SSW 06:31:42 27° SSW
STARLINK-81 3.5 06:29:12 10° WNW 06:33:07 72° SW 06:33:34 63° SSE
Helios 1A Rocket 2.7 06:33:10 61° SE 06:33:43 71° ENE 06:37:46 10° N
STARLINK-1350 4.3 06:30:19 10° SW 06:32:59 35° S 06:32:59 35° S
Cosmos 2016 Rocket 4.1 06:28:34 10° NNE 06:34:36 51° E 06:39:15 18° SSE
STARLINK-54 3.6 06:30:52 10° WNW 06:34:45 65° SSW 06:35:11 59° S
Cosmos 1461 2.9 06:30:52 10° SW 06:34:50 70° WNW 06:36:32 31° NNE
STARLINK-77 3.5 06:32:18 10° WNW 06:36:11 69° SSW 06:36:31 64° S
STARLINK-1014 3.6 06:32:05 10° NW 06:36:19 83° SW 06:36:51 67° SE
Cosmos 2173 Rocket 3.9 06:30:07 10° N 06:36:24 78° E 06:42:41 10° S
STARLINK-1352 4.3 06:33:03 10° SW 06:35:37 35° SSW 06:35:37 35° SSW
Meteor 1-27 Rocket 4.4 06:30:53 10° SSW 06:36:43 60° W 06:42:33 10° N
COSMOS 2428 4.2 06:32:38 10° WNW 06:37:49 34° SW 06:43:04 10° S
USA 234 4.4 06:34:22 20° SSE 06:37:55 32° SSW 06:43:37 10° WSW
STARLINK-1368 4.4 06:35:48 10° SW 06:38:17 34° SSW 06:38:17 34° SSW
STARLINK-1010 3.7 06:35:37 10° WNW 06:39:54 74° SW 06:40:25 65° SSE
Lacrosse 5 rocket 1.9 06:36:30 10° NNW 06:40:18 48° NNE 06:40:18 48° NNE
STARLINK-79 3.6 06:37:13 10° WNW 06:41:06 63° SSW 06:41:14 62° SSW
STARLINK-1025 3.6 06:37:06 10° WNW 06:41:18 77° SW 06:41:36 71° S
STARLINK-1369 4.5 06:38:34 10° SW 06:40:57 33° SSW 06:40:57 33° SSW
STARLINK-78 3.7 06:38:50 10° WNW 06:42:42 61° SSW 06:42:46 61° SSW
ATLAS 5 CENTAUR R/B 2.6 06:35:56 10° NNW 06:43:09 89° NE 06:46:25 34° SE
Cosmos 1459 Rocket 3.9 06:37:19 10° N 06:43:33 86° E 06:49:58 10° S
STARLINK-57 3.8 06:40:37 10° WNW 06:44:28 57° SSW 06:44:29 57° SSW
STARLINK-49 3.8 06:42:10 10° WNW 06:45:57 58° SW 06:45:57 58° SW
STARLINK-1017 3.7 06:42:03 10° WNW 06:46:14 71° SSW 06:46:20 70° SSW
STARLINK-27 3.9 06:43:45 10° WNW 06:47:26 56° SW 06:47:26 56° SW
SL-24 R/B - RUBIN 2 3.6 06:43:05 10° NNW 06:48:11 77° ENE 06:48:23 75° E
Cosmos 1470 Rocket 3.7 06:44:02 10° NNW 06:48:32 76° W 06:50:24 36° S
CZ-4B R/B 4.2 06:43:34 10° S 06:48:47 46° WSW 06:54:02 10° NW
STARLINK-74 4.0 06:45:25 10° WNW 06:49:01 54° SW 06:49:01 54° SW
Cosmos 371 Rocket 4.1 06:44:32 10° SSW 06:47:37 36° S 06:47:37 36° S
Cosmos 2237 Rocket 2.6 06:43:59 10° NW 06:49:37 63° WSW 06:52:55 25° SSE
STARLINK-39 4.1 06:47:02 10° WNW 06:50:34 52° SW 06:50:34 52° SW
STARLINK-1023 3.8 06:47:03 10° WNW 06:51:07 65° SW 06:51:07 65° SW
Cosmos 1943 Rocket 4.1 06:47:37 10° S 06:48:59 15° S 06:48:59 15° S
CORIOLIS 4.3 06:47:23 14° S 06:52:12 76° WSW 06:57:40 10° NNW
STARLINK-31 4.2 06:48:41 10° WNW 06:52:08 49° SW 06:52:08 49° SW
Cosmos 2369 Rocket 4.3 06:49:38 10° S 06:50:30 13° S 06:50:30 13° S
STARLINK-69 4.3 06:50:32 10° WNW 06:53:54 45° SW 06:53:54 45° SW
STARLINK-21 4.3 06:52:01 10° WNW 06:55:17 45° SW 06:55:17 45° SW
STARLINK-1007 4.1 06:52:05 10° WNW 06:55:56 59° SW 06:55:56 59° SW
NOAA 12 4.3 06:53:40 19° S 06:57:30 71° WSW 07:02:45 10° NNW
ATLAS CENTAUR R/B 4.1 06:54:26 10° S 06:54:46 11° S 06:54:46 11° S
BREEZE-M DEB (TANK) 4.2 06:41:09 10° NW 06:58:27 65° NNE 06:59:38 55° ENE
STARLINK-1048 4.3 06:57:05 10° WNW 07:00:43 52° WSW 07:00:43 52° WSW
Cosmos 1441 Rocket 4.2 06:58:23 10° NNW 07:01:16 44° NW 07:01:16 44° NW
SL-16 R/B 2.3 06:59:32 10° NNW 07:04:24 59° NNE 07:04:24 59° NNE
Okean O Rocket 3.8 07:02:14 10° SSW 07:05:51 24° WSW 07:09:26 10° WNW
Cosmos 1802 Rocket 4.2 07:03:49 10° NNW 07:10:16 74° W 07:16:48 10° S
IRS-1C Rocket 4.2 07:09:07 48° S 07:10:34 73° WSW 07:15:50 10° NNW
BREEZE M DEB (TANK) 4.0 06:48:22 10° WSW 07:11:52 71° SSE 07:13:12 59° ESE
Cosmos 1725 Rocket 3.9 07:06:35 10° N 07:12:52 82° E 07:13:48 66° SSE
NOSS 3-4 (A) 4.1 07:07:16 10° SSW 07:13:17 47° SSE 07:13:17 47° SSE
NOSS 3-4 (C) 4.1 07:07:23 10° SSW 07:13:20 46° SSE 07:13:20 46° SSE
Cosmos 967 Rocket 4.4 07:08:34 10° NW 07:14:50 82° SW 07:15:39 68° S
Cosmos 2278 Rocket 3.8 07:10:01 10° SW 07:15:04 33° WNW 07:20:05 10° NNW
Cosmos 2346 Rocket 4.3 07:10:24 10° S 07:16:35 86° W 07:22:40 10° N
SL-08 R/B 4.4 07:17:32 10° N 07:23:42 81° W 07:24:23 70° SSW
CZ-2C R/B 3.8 07:35:10 37° SSW 07:35:10 37° SSW 07:38:29 10° SSW
ATLAS 2AS CENTAUR R/B 3.3 07:34:02 10° SSW 07:38:34 46° SSW 07:38:34 46° SSW
ATLAS 5 CENTAUR R/B 4.3 08:22:56 10° W 08:27:59 26° SW 08:27:59 26° SW
